Wind_Speed
34 31 29 31 31 27 26 28 31 30 27 25 24 22 20 18 17 15 15 15 14 12 10 8 9 8 7 7 6 8 9 7 3 2 2 2 1 2 2 5 7 6 9
33 30 29 33 29 28 27 28 31 32 30 28 27 26 25 22 19 18 17 15 15 14 11 8 9 6 6 7 8 8 11 9 6 1 2 2 0 1 2 3 6 10 9
32 30 31 34 29 28 29 30 33 32 32 29 28 24 28 25 23 21 19 19 16 14 12 9 7 5 4 7 10 10 12 12 9 4 2 1 2 3 0 6 8 10 11
31 30 36 35 31 29 31 31 32 34 31 30 28 28 30 29 26 24 23 21 20 16 15 12 11 10 8 8 9 13 13 14 14 9 6 4 1 3 5 6 7 9 13
31 32 40 36 34 31 33 35 34 33 33 28 29 30 30 33 27 26 25 21 20 19 18 16 15 14 14 13 13 13 15 17 16 14 11 10 6 4 3 4 7 9 11
32 36 41 34 32 31 32 38 36 35 31 28 27 29 29 32 31 28 26 24 22 21 19 19 19 18 17 16 16 14 15 17 19 20 18 13 10 7 5 4 8 9 10
33 36 39 36 34 36 31 29 31 32 30 28 26 29 32 31 32 28 22 17 18 19 17 18 18 19 18 17 16 17 16 17 19 22 22 19 17 13 12 12 10 12 14
33 39 39 39 37 31 27 25 27 28 28 28 29 31 32 32 30 26 22 17 15 16 18 19 19 18 18 17 18 17 19 19 19 23 23 23 22 19 18 15 13 13 17
40 41 39 42 41 33 30 31 32 33 32 29 27 31 34 36 35 29 23 20 19 19 19 19 19 19 20 20 22 22 22 22 21 23 24 23 23 23 22 20 17 17 15
46 43 44 44 41 38 41 41 38 43 39 34 29 28 34 37 37 38 36 30 26 27 24 22 19 20 19 21 24 24 24 27 24 24 25 24 20 22 20 20 21 18 20
47 43 45 50 48 46 45 47 47 48 48 37 34 29 32 40 37 35 38 35 31 29 31 23 21 21 21 21 23 24 20 23 27 27 28 26 24 25 23 21 20 21 21
50 44 49 50 57 56 55 52 50 52 49 43 36 32 30 39 40 35 36 38 32 30 31 25 26 26 24 24 26 24 21 24 25 30 31 29 28 26 25 25 23 25 25
50 46 49 54 58 64 62 57 54 51 49 54 41 35 31 37 40 39 37 39 36 31 31 28 27 27 26 26 25 23 23 25 27 27 29 28 29 30 28 26 29 30 29
50 51 50 55 58 60 61 56 53 50 53 56 47 38 35 37 39 38 34 34 35 34 31 30 30 28 28 27 25 24 23 23 25 26 30 30 31 29 29 32 33 33 33
52 52 50 50 55 60 57 53 48 48 52 54 52 44 39 37 39 37 31 30 32 30 32 29 29 26 26 26 25 25 24 26 25 27 31 33 34 34 33 34 35 31 29
54 53 51 51 53 52 53 57 56 54 52 51 52 48 40 39 39 40 34 26 22 22 20 24 25 26 23 25 27 28 29 28 29 32 31 35 40 44 44 40 32 28 30
54 52 52 52 50 52 50 48 47 46 47 48 56 55 49 40 37 34 35 34 26 23 23 24 25 26 28 26 27 26 29 29 30 33 37 40 42 40 39 35 33 33 38
53 55 54 54 51 49 44 42 41 41 41 46 48 54 54 49 42 34 31 32 32 32 34 31 35 29 33 31 34 31 28 35 31 30 36 37 38 35 37 37 38 39 42
56 52 55 53 49 48 44 42 39 39 44 42 42 41 43 42 45 43 39 37 38 37 41 39 42 40 40 35 36 36 45 39 35 38 35 40 37 40 43 41 41 41 45
59 56 59 61 54 51 45 42 44 46 47 50 53 48 48 50 54 53 52 53 53 52 44 47 48 51 49 46 50 52 48 46 44 45 45 44 44 41 38 43 46 48 52
64 64 61 63 62 55 56 51 54 53 45 61 57 55 56 58 59 60 57 55 55 55 55 54 49 50 52 49 52 57 51 52 45 45 45 46 42 45 44 46 48 53 54
70 71 68 64 65 64 59 60 60 63 59 63 67 68 70 67 67 60 64 61 58 64 62 59 55 55 56 58 56 59 59 58 52 50 50 55 52 51 55 59 57 56 61
77 75 70 70 72 76 73 61 57 64 62 59 63 68 63 69 71 75 71 65 69 69 67 70 67 69 66 65 64 64 59 50 55 61 64 58 59 58 58 58 60 69 69
77 78 71 75 79 80 80 68 64 62 63 72 60 58 70 72 65 63 63 69 65 71 71 66 64 65 68 69 70 65 61 68 66 62 70 75 72 67 71 72 73 72 72
81 83 69 79 86 88 83 75 71 64 72 72 74 69 74 64 76 72 66 66 66 71 73 72 71 76 75 73 72 68 66 72 69 68 69 63 65 68 70 74 77 81 83
77 84 88 91 89 90 94 83 73 83 86 88 84 84 76 71 72 77 82 79 75 76 75 74 75 77 73 76 80 77 76 75 71 65 73 71 74 75 77 81 84 84 80
Wind_Direction
252 256 262 241 229 222 211 212 214 214 217 213 216 203 203 209 210 205 206 208 206 209 210 210 225 236 240 227 229 220 226 235 242 243 208 295 356 54 39 34 17 356 345
253 259 253 231 223 220 213 213 215 217 216 212 215 207 202 203 204 202 205 204 199 202 213 223 243 243 244 243 248 245 233 232 231 237 187 195 197 258 307 351 343 354 348
251 253 240 225 220 218 213 216 217 221 218 215 220 220 204 204 205 206 201 197 199 199 198 205 215 238 249 251 255 253 246 240 225 193 135 255 255 243 278 351 352 2 360
245 245 229 221 215 216 210 215 217 213 213 216 217 221 214 208 212 213 209 209 205 206 211 226 235 246 248 258 262 252 250 246 234 230 244 246 275 249 285 309 338 328 336
239 230 222 220 216 210 207 209 216 213 214 217 221 220 225 215 215 219 217 216 219 221 223 231 232 243 260 267 263 255 254 242 242 236 243 256 255 257 282 315 339 345 347
230 225 221 216 214 203 203 213 217 217 215 218 220 224 230 222 219 218 222 226 227 229 231 235 239 246 255 259 262 253 254 251 245 234 240 252 249 258 280 321 335 332 335
221 219 219 214 205 199 205 213 219 221 215 213 225 225 227 229 221 217 218 219 222 225 233 244 249 251 248 250 262 253 248 253 248 243 239 250 257 260 279 292 313 333 336
231 212 215 209 192 195 208 218 226 226 223 225 228 229 227 230 230 210 211 218 220 230 244 260 265 267 263 256 252 257 244 245 244 243 245 245 256 268 279 292 300 311 330
215 213 209 205 199 196 211 226 236 239 234 231 233 229 229 231 233 226 220 230 237 246 257 274 268 274 273 260 247 251 251 252 251 243 241 246 256 262 270 280 296 304 314
210 210 205 200 201 207 214 226 219 236 245 240 236 236 234 232 235 236 238 240 238 249 261 275 270 281 276 263 258 263 261 257 251 251 247 245 247 247 255 271 286 295 300
213 209 203 199 205 210 217 220 222 231 242 240 239 242 234 229 233 232 234 233 237 249 255 270 271 277 273 267 269 272 269 262 253 250 251 247 243 254 259 268 275 283 282
212 207 203 200 203 206 213 219 221 228 239 244 241 247 241 230 233 234 235 232 234 246 252 259 268 280 273 275 277 273 267 266 263 256 256 251 250 253 258 269 273 278 285
210 207 206 204 203 204 212 221 224 225 227 242 246 246 243 236 234 236 235 240 241 252 251 259 264 269 270 277 278 278 282 274 266 266 265 253 256 257 267 271 279 283 285
211 209 206 204 207 208 211 218 222 224 223 240 248 247 243 237 240 241 237 241 247 247 253 257 266 265 269 276 277 279 284 279 269 265 265 260 260 266 271 279 285 284 282
211 205 202 205 208 207 212 211 211 219 224 231 246 251 246 245 241 240 244 249 254 254 251 251 253 261 273 278 280 279 278 281 280 271 264 261 265 271 277 285 284 285 292
211 204 206 207 203 205 209 212 216 217 222 229 232 242 243 243 242 240 244 244 247 242 247 244 253 269 285 278 282 279 276 279 277 277 273 269 274 276 279 282 280 290 296
215 207 206 205 198 200 200 206 208 213 218 226 230 235 240 240 240 241 247 248 256 259 250 261 261 271 281 284 290 296 285 289 291 287 284 282 282 280 280 283 284 285 289
217 212 205 205 204 201 201 205 213 218 222 228 227 227 233 234 237 236 241 247 255 259 260 262 266 271 274 274 282 285 294 283 280 290 282 281 279 276 278 279 279 281 289
219 215 211 203 203 209 207 210 217 218 232 238 238 232 233 235 230 231 234 241 253 259 259 259 268 273 272 265 268 281 288 292 289 286 295 295 268 278 279 284 277 284 291
213 218 211 208 207 210 207 214 222 222 230 237 238 238 246 243 249 246 246 247 248 254 257 261 264 265 267 269 273 277 277 279 279 281 293 301 279 280 280 285 288 286 285
216 215 210 207 210 207 207 217 221 222 234 242 232 235 241 240 241 242 246 246 250 253 250 255 259 266 268 271 276 271 275 279 272 270 279 288 277 267 279 279 280 282 281
216 212 212 211 209 209 210 212 226 235 234 238 237 235 241 245 245 246 248 241 245 250 248 251 257 260 263 264 265 272 275 271 271 271 276 277 273 266 274 279 279 283 284
216 216 214 211 209 210 211 222 225 221 227 232 238 246 245 243 248 247 245 242 245 249 250 249 251 249 252 258 262 267 270 277 271 269 280 274 270 267 271 278 279 282 283
218 216 216 212 211 215 215 225 222 226 227 229 225 231 234 238 239 242 245 241 246 250 252 250 250 244 247 252 258 261 265 270 268 260 263 271 275 272 277 281 281 282 284
219 219 215 225 217 218 220 220 221 227 226 227 230 237 233 234 233 237 244 250 250 251 255 255 256 248 251 256 258 260 267 269 268 264 266 267 269 273 277 280 279 280 282
218 225 221 219 220 222 219 222 228 230 227 231 234 236 235 235 241 246 246 247 246 249 251 252 252 251 255 257 259 261 264 263 261 261 265 264 264 269 273 277 278 278 275
Height
10730 10731 10733 10736 10739 10744 10748 10753 10757 10761 10765 10768 10771 10774 10776 10778 10780 10782 10784 10786 10787 10789 10790 10791 10792 10792 10793 10794 10795 10795 10796 10797 10798 10799 10798 10799 10798 10799 10798 10797 10797 10796 10795
10723 10726 10728 10730 10734 10738 10743 10748 10753 10757 10761 10764 10767 10769 10773 10775 10778 10780 10782 10784 10786 10787 10789 10790 10790 10791 10792 10793 10794 10795 10795 10796 10798 10798 10798 10798 10797 10797 10797 10796 10796 10795 10794
10715 10719 10722 10724 10728 10733 10738 10743 10748 10752 10756 10760 10763 10766 10769 10773 10776 10777 10779 10781 10783 10785 10787 10788 10789 10789 10790 10791 10792 10792 10794 10795 10796 10797 10797 10797 10796 10795 10795 10795 10794 10794 10793
10707 10712 10716 10718 10723 10728 10733 10738 10743 10747 10751 10755 10759 10762 10764 10768 10772 10774 10776 10778 10780 10782 10784 10786 10787 10788 10789 10790 10789 10790 10791 10792 10794 10795 10795 10795 10794 10794 10794 10793 10794 10793 10792
10699 10704 10709 10713 10718 10723 10728 10733 10737 10743 10747 10751 10755 10758 10761 10763 10767 10770 10772 10775 10778 10779 10781 10783 10785 10786 10787 10787 10787 10787 10787 10788 10790 10792 10792 10793 10792 10792 10792 10792 10792 10791 10791
10691 10696 10702 10709 10713 10717 10722 10726 10732 10737 10742 10747 10751 10755 10757 10759 10763 10765 10768 10771 10774 10777 10778 10779 10781 10782 10783 10784 10784 10785 10784 10784 10786 10787 10789 10789 10789 10789 10790 10790 10790 10790 10789
10683 10689 10695 10702 10706 10712 10716 10721 10726 10732 10738 10742 10746 10749 10752 10755 10758 10761 10764 10767 10770 10772 10774 10776 10777 10778 10778 10780 10781 10781 10781 10781 10782 10783 10785 10785 10786 10786 10786 10786 10787 10786 10785
10677 10680 10687 10694 10699 10706 10713 10717 10721 10727 10733 10737 10740 10744 10748 10750 10753 10756 10759 10762 10766 10768 10770 10772 10773 10774 10775 10776 10777 10777 10778 10778 10778 10779 10780 10782 10783 10783 10783 10782 10782 10782 10781
10667 10672 10678 10686 10692 10699 10707 10712 10717 10722 10726 10731 10736 10739 10742 10744 10748 10752 10755 10758 10761 10764 10766 10768 10769 10770 10770 10771 10772 10772 10773 10774 10773 10773 10774 10776 10778 10779 10778 10778 10777 10777 10776
10655 10661 10668 10677 10686 10693 10701 10708 10714 10718 10719 10724 10729 10733 10735 10738 10740 10746 10750 10753 10756 10759 10762 10763 10764 10765 10764 10765 10766 10767 10769 10769 10769 10768 10768 10770 10771 10772 10772 10772 10772 10772 10771
10647 10654 10662 10669 10677 10686 10692 10698 10705 10709 10712 10716 10721 10725 10728 10731 10734 10737 10742 10745 10750 10754 10756 10758 10758 10759 10758 10758 10758 10760 10762 10763 10763 10762 10762 10763 10764 10766 10766 10767 10767 10766 10765
10636 10643 10653 10660 10668 10676 10683 10689 10695 10700 10704 10707 10713 10719 10722 10723 10726 10731 10735 10739 10743 10747 10749 10751 10751 10752 10751 10751 10751 10753 10755 10756 10756 10756 10756 10756 10758 10759 10760 10760 10760 10759 10759
10628 10636 10642 10650 10659 10664 10671 10679 10686 10692 10698 10699 10704 10709 10714 10717 10721 10725 10730 10733 10737 10740 10741 10743 10744 10745 10745 10744 10745 10747 10749 10749 10750 10750 10750 10751 10752 10752 10753 10754 10753 10753 10752
10617 10622 10631 10641 10649 10654 10661 10668 10677 10684 10691 10692 10696 10703 10707 10711 10715 10718 10722 10727 10729 10732 10735 10736 10738 10738 10738 10739 10739 10741 10742 10743 10743 10745 10746 10746 10747 10747 10747 10747 10746 10745 10745
10608 10615 10623 10631 10639 10645 10653 10660 10667 10674 10682 10688 10690 10693 10699 10704 10707 10711 10714 10718 10720 10726 10727 10727 10730 10730 10732 10733 10734 10735 10736 10736 10737 10739 10739 10739 10739 10740 10740 10739 10738 10738 10737
10600 10607 10614 10622 10629 10636 10644 10651 10658 10666 10674 10679 10683 10686 10691 10694 10698 10701 10705 10708 10712 10716 10719 10720 10721 10723 10725 10726 10727 10728 10728 10730 10731 10731 10731 10732 10731 10731 10730 10730 10731 10731 10730
10594 10600 10607 10615 10622 10629 10635 10643 10650 10657 10664 10670 10675 10679 10682 10686 10690 10693 10697 10701 10704 10707 10710 10711 10715 10717 10718 10720 10720 10720 10722 10723 10723 10723 10722 10723 10722 10722 10722 10722 10721 10720 10719
10587 10595 10601 10609 10618 10624 10629 10635 10643 10650 10654 10660 10664 10668 10673 10677 10681 10685 10689 10692 10695 10697 10700 10702 10705 10709 10710 10712 10713 10714 10715 10714 10714 10713 10713 10712 10712 10712 10712 10712 10711 10710 10708
10579 10587 10592 10601 10610 10619 10624 10629 10636 10641 10647 10652 10655 10660 10663 10669 10673 10676 10678 10682 10684 10687 10689 10691 10694 10698 10699 10702 10704 10706 10707 10706 10705 10705 10703 10704 10702 10703 10702 10702 10700 10699 10698
10566 10575 10582 10588 10598 10605 10614 10621 10627 10633 10638 10642 10646 10650 10654 10660 10663 10666 10670 10672 10675 10678 10679 10681 10683 10686 10688 10690 10692 10693 10694 10695 10697 10697 10695 10695 10694 10695 10695 10693 10692 10689 10687
10551 10559 10568 10576 10585 10594 10601 10610 10617 10623 10628 10635 10636 10638 10642 10647 10649 10652 10657 10661 10663 10665 10668 10669 10672 10673 10675 10676 10676 10675 10681 10680 10683 10685 10685 10684 10685 10685 10685 10684 10681 10677 10675
10533 10542 10550 10561 10570 10579 10586 10597 10603 10610 10615 10620 10623 10624 10628 10631 10632 10638 10643 10646 10650 10650 10655 10657 10658 10661 10663 10663 10662 10662 10664 10666 10669 10667 10671 10671 10671 10671 10669 10670 10666 10666 10664
10520 10528 10536 10545 10553 10561 10569 10578 10584 10588 10596 10599 10605 10609 10612 10614 10616 10622 10629 10631 10635 10637 10640 10644 10647 10646 10646 10649 10650 10652 10652 10652 10655 10656 10655 10657 10657 10657 10655 10655 10651 10648 10648
10503 10513 10523 10530 10536 10541 10550 10553 10562 10570 10576 10581 10584 10590 10594 10599 10603 10607 10610 10614 10619 10621 10625 10631 10633 10629 10631 10635 10638 10639 10640 10641 10643 10641 10640 10643 10640 10643 10640 10638 10635 10632 10630
10486 10497 10509 10518 10521 10525 10532 10539 10545 10549 10553 10561 10567 10573 10580 10582 10587 10591 10597 10599 10604 10607 10608 10613 10615 10614 10618 10622 10624 10627 10627 10628 10629 10625 10624 10628 10624 10624 10623 10620 10617 10614 10613
10472 10474 10481 10491 10500 10506 10514 10520 10526 10533 10536 10541 10547 10553 10561 10566 10570 10574 10577 10582 10588 10588 10591 10595 10600 10602 10602 10604 10607 10609 10612 10614 10612 10610 10606 10612 10609 10607 10607 10604 10601 10599 10595